Location: Arbon
(43.0005°N, 0.7472°E)
Time: 14:42:07
(UTC+00:00)

Envisat - Pass Details

Date: 31 October 2020
Orbit: 764 x 766 km, 98.1° (Epoch: 30 November)

Event Time Altitude Azimuth Distance (km) Brightness Sun altitude
Rises 17:25:51 0° 179° (S) 3,218 6.4 -7.1°
Reaches altitude 10° 17:28:12 10° 184° (S) 2,296 5.7 -7.6°
Maximum altitude 17:33:08 52° 260° (W) 951 4.0 -8.4°
Drops below altitude 10° 17:38:06 10° 337° (NNW) 2,312 5.6 -9.3°
Sets 17:40:29 0° 343° (NNW) 3,243 6.3 -9.8°
